Location: Ab? ar R?sh Ba?r?
(24.1861°N, 32.8847°E)
Time: 04:29:05
(UTC+00:00)

CZ-4B R/B - Pass Details

Date: 26 May 2022
Orbit: 809 x 881 km, 99.1° (Epoch: 01 July)

Event Time Altitude Azimuth Distance (km) Brightness Sun altitude
Rises 17:24:01 0° 193° (SSW) 3,317 6.1 -11.9°
Reaches altitude 10° 17:26:41 10° 206° (SSW) 2,393 5.5 -12.4°
Maximum altitude 17:31:02 26° 262° (W) 1,566 5.2 -13.3°
Drops below altitude 10° 17:35:27 10° 317° (NW) 2,429 6.9 -14.1°
Sets 17:38:12 0° 330° (NNW) 3,376 7.5 -14.7°
